Temperature
16 16 17 17 14 12 14 15 16 17 17 17 17 16 15 14 15 15 13 14 14 14 14 14 15 15 15 15 15 15 15 15 15 15 15 16 16 16 15 16 15 15 15 15 15 15 15 15 15
16 16 16 16 12 13 14 14 15 16 17 17 17 16 14 13 13 13 13 13 14 14 14 14 14 15 15 15 15 15 15 15 15 15 15 15 15 15 15 15 15 15 15 15 15 15 15 15 15
16 16 16 12 12 13 15 15 15 16 17 17 15 14 13 13 13 13 13 13 13 14 14 14 14 14 14 14 15 15 15 15 15 15 15 15 15 15 15 15 15 15 15 15 15 15 15 15 15
16 16 15 12 13 13 14 15 15 16 17 16 15 13 12 13 13 13 13 13 13 13 14 14 14 14 14 14 14 14 14 14 15 15 15 15 15 15 15 15 15 15 15 15 15 15 15 15 15
15 15 12 12 13 13 14 15 16 15 15 15 14 12 12 12 13 13 13 13 13 13 13 13 13 14 14 14 14 14 14 14 14 14 14 15 15 14 15 15 15 15 15 15 15 15 15 15 14
15 12 11 11 13 14 14 15 15 14 15 15 14 12 11 12 12 13 13 13 13 13 13 13 13 13 13 13 14 14 14 14 14 14 14 14 14 14 15 14 14 14 15 14 14 14 14 14 14
13 10 11 12 13 13 14 16 15 14 13 14 14 11 11 11 12 12 12 12 13 13 13 13 13 13 13 13 13 13 13 13 14 14 14 14 14 14 14 14 14 14 14 14 14 14 14 14 14
14 10 12 12 13 13 14 15 14 14 13 14 14 11 11 11 11 12 12 12 12 12 12 12 12 12 12 13 13 13 13 13 13 13 14 14 14 14 14 14 14 14 14 14 14 14 14 14 14
14 10 10 12 13 13 13 13 13 13 13 13 12 12 12 12 11 11 12 12 12 12 12 12 12 12 12 12 12 12 12 12 12 13 13 13 13 13 13 13 14 14 14 14 14 13 14 13 13
12 9 11 12 13 12 12 12 12 12 11 11 11 11 11 11 11 11 12 12 12 12 12 12 12 12 12 12 12 12 12 12 12 12 12 12 13 13 13 13 13 13 13 13 13 13 13 13 13
11 10 11 12 13 13 12 12 12 12 11 11 11 11 11 11 11 11 11 11 11 11 11 11 11 11 11 11 11 11 11 11 12 12 12 12 12 12 12 12 13 13 13 13 13 13 13 13 13
10 11 12 12 13 12 12 11 11 11 11 12 11 11 11 10 10 11 10 10 11 11 11 11 11 11 11 11 11 11 11 11 11 11 12 12 12 12 12 12 12 12 12 12 12 12 12 12 12
10 10 11 12 12 12 11 11 10 10 11 11 11 10 10 10 10 10 10 10 10 10 10 10 10 10 10 11 11 11 11 11 11 11 11 11 11 11 11 12 12 12 12 12 12 12 12 12 12
10 10 11 11 11 11 10 10 9 9 10 10 10 10 10 10 10 10 10 10 10 10 10 10 10 10 10 10 10 10 10 10 11 11 11 11 11 11 11 11 11 12 12 12 12 12 12 12 11
10 9 9 10 10 10 10 9 8 10 10 9 9 9 9 9 9 9 9 10 10 9 9 9 9 9 10 10 10 10 10 10 10 10 10 10 10 10 11 11 11 11 11 11 11 11 11 11 11
9 9 8 9 10 10 10 8 8 10 9 8 9 9 9 9 9 9 9 9 9 9 9 9 9 9 9 9 9 9 9 9 9 9 9 10 10 10 10 10 10 10 10 11 11 11 11 11 11
7 7 8 9 9 9 9 8 8 9 8 8 8 8 8 8 8 8 8 8 9 9 9 9 8 8 9 9 9 8 9 9 9 9 9 9 9 9 9 9 9 9 10 10 10 10 10 10 10
7 7 8 8 9 9 8 7 7 8 8 7 7 7 7 7 8 8 8 8 8 8 8 8 8 8 8 8 8 8 8 8 8 8 8 8 8 8 8 9 9 9 9 9 9 9 9 10 9
7 7 7 8 8 8 7 7 7 7 7 6 6 6 6 7 7 7 7 7 8 8 8 7 7 7 7 7 8 8 8 8 8 8 8 8 8 8 8 8 8 8 8 9 9 9 9 9 9
7 7 6 7 8 8 6 6 7 6 6 6 6 6 6 6 6 6 6 7 7 7 7 7 7 7 7 7 7 7 7 7 7 7 7 7 7 7 7 7 7 8 8 8 8 8 8 8 8
7 6 6 7 7 7 6 6 6 6 6 6 6 6 6 6 6 6 6 6 6 6 6 6 6 6 6 6 6 6 6 6 6 6 6 6 6 6 7 7 7 7 7 7 7 8 8 8 8
6 7 7 6 5 4 6 5 5 5 5 5 5 5 5 5 6 5 6 6 6 5 6 6 6 6 6 6 6 6 6 6 6 6 6 6 6 6 6 6 6 6 7 7 7 7 7 7 7
6 7 6 6 5 4 4 4 5 4 5 5 4 5 5 5 5 5 5 6 5 5 5 5 5 5 5 5 5 5 5 5 5 5 5 5 5 5 5 6 6 6 6 6 6 6 6 6 6
6 5 5 4 4 4 4 4 4 3 4 5 4 4 4 5 5 5 5 5 5 5 5 5 5 5 5 4 4 4 4 4 5 5 5 5 5 5 5 5 5 5 5 5 6 6 6 6 6
5 4 3 3 3 3 4 4 4 4 4 4 4 4 4 4 4 4 4 5 5 4 4 4 4 4 4 4 4 4 4 4 4 4 4 4 4 4 4 4 4 5 5 5 5 5 5 5 5
5 4 4 4 3 3 4 4 4 4 4 4 4 4 4 4 4 3 4 4 4 4 4 4 4 4 4 4 3 3 3 3 3 3 3 3 4 4 4 4 4 4 4 4 4 4 4 4 4
4 3 4 3 2 3 3 3 3 3 3 3 3 3 3 3 3 3 3 3 3 3 3 3 3 3 3 3 3 3 3 3 3 3 3 3 3 3 3 3 3 3 3 3 3 3 4 4 4
4 4 2 2 3 3 3 3 3 3 3 2 2 2 2 2 2 2 3 3 3 3 3 3 3 3 3 3 2 2 2 2 2 2 2 2 2 2 3 3 3 3 3 3 3 3 3 3 3
3 3 2 2 2 3 3 3 3 2 2 2 1 2 2 2 2 2 2 2 2 2 2 2 2 2 2 2 2 2 2 2 2 2 2 2 2 2 2 2 2 2 2 2 2 2 2 2 2
3 3 2 2 2 1 2 3 3 2 2 1 1 1 2 2 2 2 2 2 2 2 2 2 2 2 2 2 1 1 1 1 1 1 1 1 1 1 2 2 2 2 2 2 2 2 2 2 2
Wind_Speed
10 8 2 4 5 4 2 4 3 2 2 1 3 7 8 5 3 4 2 1 3 2 3 4 6 7 7 8 8 8 8 7 7 7 7 7 7 7 8 9 9 10 10 10 10 10 10 11 11
6 3 5 5 5 1 4 4 2 3 2 2 4 6 6 4 3 4 1 1 3 3 3 4 7 7 7 8 8 8 8 7 7 6 6 6 6 7 7 8 8 9 9 9 10 10 10 10 10
4 2 4 4 4 5 4 3 4 1 1 2 4 5 4 3 2 2 1 2 4 5 5 5 8 8 8 8 8 8 8 7 6 6 6 6 6 6 7 7 8 8 8 8 9 10 10 9 9
3 5 5 4 4 4 4 4 3 1 2 4 5 5 3 2 1 2 3 4 6 5 6 6 8 8 7 7 8 7 7 7 6 6 5 5 5 6 6 7 7 8 8 8 9 9 9 9 8
4 4 4 0 4 3 3 4 2 1 1 2 4 4 2 4 3 5 5 5 6 5 7 7 9 8 8 8 7 7 7 7 6 5 5 5 5 5 5 7 8 8 8 8 9 9 8 8 8
4 4 3 3 4 3 3 2 1 1 1 1 4 4 1 2 4 4 5 5 5 5 6 7 8 9 9 8 7 7 6 6 6 5 4 4 4 4 5 6 7 7 7 8 8 8 8 7 7
4 4 4 4 3 3 3 1 2 2 1 0 3 5 1 1 1 4 5 5 5 6 6 6 6 7 8 8 7 7 7 7 6 6 6 5 4 4 5 6 6 6 6 7 8 8 7 7 6
5 4 2 2 3 3 3 2 2 2 1 1 3 6 4 3 2 5 5 5 5 5 5 5 6 6 6 7 7 7 7 7 7 7 6 6 5 4 4 5 5 5 5 6 6 7 7 6 6
4 4 3 4 4 3 1 2 3 2 3 3 3 2 3 5 6 6 5 5 4 4 3 4 5 5 5 5 5 6 6 6 7 6 7 7 5 4 4 4 4 5 5 5 6 6 6 5 5
4 4 5 3 3 2 1 1 1 2 3 2 3 4 5 6 7 6 4 3 2 1 1 2 3 4 4 4 5 5 5 6 6 6 6 6 6 6 5 5 4 4 5 5 5 5 5 4 3
4 5 4 2 2 2 1 1 1 2 1 3 3 4 5 5 5 4 3 3 2 1 1 2 2 3 3 3 4 4 4 5 5 6 6 5 5 6 6 5 5 4 4 4 4 4 3 3 3
3 3 3 2 1 1 2 1 1 1 4 2 4 5 6 5 5 4 3 2 2 2 2 1 2 3 3 3 4 4 4 4 4 4 4 4 4 4 4 4 4 3 3 3 3 3 3 3 3
2 2 2 1 0 1 1 1 1 2 3 2 5 5 5 5 3 2 3 3 2 2 1 1 2 3 3 3 3 3 3 3 3 4 4 4 4 3 3 3 3 3 3 2 2 3 2 2 2
2 2 2 2 2 1 2 2 1 4 2 3 4 4 4 4 4 3 2 2 2 2 1 1 2 2 3 3 2 3 3 3 3 4 4 4 3 3 3 2 2 3 3 2 2 2 3 2 2
0 1 4 3 3 2 2 3 4 6 3 3 2 3 3 3 3 4 3 2 2 2 2 2 2 3 3 3 2 3 2 3 3 3 4 4 4 3 3 3 2 2 2 3 3 2 2 2 2
1 1 3 4 3 2 4 7 6 4 4 4 3 2 2 2 2 3 3 2 2 2 2 2 2 2 3 2 3 3 3 3 3 3 3 4 4 4 3 3 2 2 2 3 2 1 1 1 1
1 2 4 5 3 2 4 6 5 3 4 4 3 3 2 1 1 2 3 3 3 3 3 2 2 2 2 3 3 3 3 4 3 3 3 3 4 3 3 2 2 3 3 2 2 1 1 1 1
4 4 4 5 3 1 4 7 7 4 3 4 3 2 2 2 2 2 2 3 3 3 3 3 2 2 2 2 3 2 3 3 4 4 3 4 3 3 3 3 2 3 2 1 1 1 1 1 1
4 4 6 7 4 3 6 9 9 6 4 4 4 3 3 2 1 1 2 3 3 3 3 3 2 2 2 1 1 1 1 1 2 3 3 3 3 3 3 2 2 1 1 1 1 1 2 1 1
4 5 6 6 3 3 5 9 7 5 6 7 7 6 5 2 0 0 2 3 3 3 2 2 2 2 1 1 0 0 1 0 1 2 3 3 3 3 2 2 1 1 1 1 1 1 1 1 1
5 6 6 5 5 2 2 6 5 4 4 4 5 5 5 5 4 2 2 2 2 2 2 1 1 1 1 1 2 2 2 1 1 1 2 2 2 2 2 2 1 1 1 1 1 1 1 1 1
6 5 5 4 2 4 2 5 6 4 3 4 5 4 4 4 3 2 2 2 2 2 1 1 1 1 1 2 2 2 1 1 2 1 1 2 2 2 2 2 1 1 1 1 1 1 1 2 1
5 3 4 3 3 3 4 4 6 2 4 6 5 5 4 4 4 3 3 3 2 2 1 1 2 1 1 1 1 1 1 1 1 1 1 1 2 2 2 1 1 1 1 1 1 1 1 2 2
1 2 2 2 1 4 6 6 6 5 7 6 5 4 4 3 2 2 2 2 1 1 2 2 2 1 1 1 1 2 2 1 1 1 1 1 1 1 1 1 0 1 1 2 2 2 2 2 2
2 3 2 3 2 6 3 4 7 5 5 6 6 4 3 2 2 1 1 1 1 1 1 1 1 0 0 0 1 2 2 2 3 2 2 2 2 2 2 1 1 1 2 2 2 2 2 3 3
2 5 4 4 5 5 2 5 5 3 2 1 2 2 2 2 1 1 1 2 2 1 1 1 0 1 0 1 1 2 2 2 2 3 3 3 3 3 3 2 2 2 2 2 2 2 3 2 3
2 3 3 3 2 4 5 4 5 2 2 2 2 2 1 0 1 0 0 1 1 1 1 1 1 1 1 2 2 2 2 3 3 3 3 3 3 2 2 2 2 2 2 2 2 2 3 3 3
2 3 2 2 2 5 5 5 4 3 2 1 0 1 2 2 1 1 1 1 1 1 1 1 1 2 2 2 2 2 3 3 3 3 3 3 3 2 1 2 2 2 2 2 2 2 3 3 3
1 1 2 2 3 3 4 5 3 3 2 2 3 3 3 2 2 2 2 1 1 0 1 1 1 1 2 2 2 3 3 3 3 3 3 3 3 2 3 3 3 2 2 2 2 3 3 3 3
3 3 4 3 4 3 3 6 2 1 2 2 3 3 3 2 2 2 2 1 0 1 1 1 1 2 2 3 2 3 3 3 3 3 3 3 3 3 2 2 3 3 3 3 3 4 3 4 4
Wind_Direction
330 338 50 56 59 57 237 258 250 309 2 359 67 88 98 91 108 143 151 42 55 74 86 92 87 86 83 80 79 79 87 96 100 102 104 104 110 110 111 112 113 115 115 117 116 112 109 105 103
335 1 53 62 96 142 259 257 241 246 205 138 66 76 79 76 71 99 64 19 63 69 81 89 97 97 90 86 82 79 79 88 97 101 104 104 110 115 115 115 116 117 116 118 119 117 115 111 108
338 47 80 82 132 183 217 230 208 230 56 90 66 52 86 106 108 126 150 104 66 59 68 88 101 100 95 88 84 80 77 78 89 94 101 105 108 117 119 117 118 119 119 119 118 117 120 117 111
49 48 60 90 197 220 209 224 213 147 30 51 92 68 49 28 136 150 121 95 80 52 55 76 92 96 92 88 87 83 80 76 78 85 92 105 107 118 122 120 120 120 124 124 120 118 122 123 121
61 77 80 155 234 247 238 245 227 153 108 47 97 100 53 354 55 96 100 94 88 61 52 64 77 83 87 87 88 84 80 78 74 77 85 95 102 112 125 127 126 125 127 131 131 129 129 132 129
60 74 113 209 239 267 279 263 177 139 110 61 98 112 142 0 70 90 103 96 87 78 59 59 69 76 75 79 85 85 78 74 72 70 78 93 94 107 120 127 130 130 132 135 137 135 134 132 134
108 111 171 198 226 269 282 281 153 151 119 77 123 118 155 339 103 108 102 91 79 74 65 57 60 73 74 73 77 77 74 70 66 65 66 75 87 101 118 125 129 125 124 131 135 137 137 135 131
128 116 174 213 206 238 303 6 41 90 145 20 97 137 184 217 149 106 94 87 82 71 62 57 58 66 69 67 71 68 66 64 61 58 59 67 73 87 109 121 129 126 122 126 136 142 141 138 134
100 99 195 212 196 221 339 36 358 25 74 39 47 129 167 138 115 98 82 65 63 61 59 57 59 64 72 74 69 66 63 59 58 56 60 62 56 67 86 98 122 131 129 130 138 144 140 134 130
105 164 211 214 184 187 39 60 347 40 38 45 41 46 90 111 114 113 109 102 85 76 63 64 66 69 80 81 70 61 58 57 53 49 52 56 60 60 66 76 86 108 123 129 125 126 127 121 111
153 186 209 239 199 165 135 358 7 109 253 211 181 151 128 119 124 131 132 121 131 137 92 81 86 83 85 79 78 65 57 53 53 48 47 55 61 60 59 63 61 71 96 101 102 97 87 97 104
177 230 214 232 215 155 172 163 11 157 224 192 159 148 138 141 150 157 148 137 110 86 82 78 82 79 78 88 84 78 66 58 52 45 46 61 64 60 57 60 55 62 74 80 87 88 76 80 96
227 263 282 245 111 163 132 174 212 250 236 140 125 131 148 151 155 156 145 135 114 96 82 68 81 86 76 74 73 74 70 71 68 54 49 65 72 66 62 58 63 60 64 79 101 103 98 86 84
213 248 281 262 237 210 165 263 189 247 214 149 141 157 176 169 167 141 126 126 129 123 91 75 79 82 78 83 80 71 81 79 69 59 54 64 75 78 71 59 58 58 62 66 111 123 128 130 108
155 336 316 272 214 202 135 294 227 219 186 173 188 185 181 183 168 164 173 164 153 127 109 88 98 78 88 94 90 74 83 92 74 63 60 62 68 72 77 68 51 38 60 65 64 88 111 123 113
37 37 280 274 197 193 156 251 250 204 170 188 210 211 179 199 193 179 163 145 128 105 100 97 86 81 84 84 78 72 80 85 77 68 64 64 68 72 78 75 51 42 63 74 74 56 122 129 121
12 241 250 280 232 178 184 242 252 222 172 192 209 217 207 218 270 187 162 141 131 121 105 88 82 92 95 79 67 68 72 70 66 62 56 60 67 77 81 78 59 58 60 56 72 78 130 134 115
229 236 245 247 257 246 244 253 260 248 202 207 222 223 219 219 248 215 159 141 126 111 98 87 74 64 77 72 69 63 62 57 54 55 48 56 58 69 80 72 62 71 70 59 57 86 80 120 145
221 225 256 263 268 260 249 260 258 247 220 218 228 225 232 244 261 126 132 127 110 98 95 95 89 62 72 75 85 99 68 38 39 46 42 51 51 58 77 69 56 66 106 125 114 122 101 67 94
244 249 264 284 288 260 267 271 261 232 212 209 213 222 220 219 238 109 108 108 113 118 113 108 104 104 102 93 71 203 193 228 29 30 28 36 48 50 68 76 81 69 112 100 107 115 129 88 96
254 229 241 262 316 307 292 290 253 243 212 212 216 209 207 197 194 200 147 132 113 111 135 136 127 114 113 77 70 57 45 21 10 356 347 7 35 51 65 83 89 80 122 170 182 150 146 165 174
255 241 237 248 270 267 203 273 265 235 236 226 228 213 205 197 184 192 163 148 151 173 154 132 134 109 99 101 107 120 144 218 253 267 289 347 23 40 51 73 93 105 129 186 218 174 173 166 194
240 255 247 242 221 268 239 229 272 223 241 243 234 218 207 198 188 198 188 176 166 156 140 125 105 92 82 111 156 161 187 242 282 300 302 324 347 15 25 46 90 154 202 210 206 209 199 189 190
250 21 11 39 100 263 236 204 271 228 218 224 221 209 199 185 183 191 171 144 124 109 98 95 97 77 68 138 191 184 201 234 288 307 284 282 289 310 350 3 350 232 225 227 219 212 209 210 199
82 82 15 339 293 251 233 209 250 244 223 216 211 214 195 167 154 170 111 118 129 120 116 116 119 88 34 62 240 222 219 221 231 248 257 261 263 261 264 282 270 259 248 236 221 212 216 218 212
206 158 178 225 239 275 287 234 256 276 256 175 165 177 160 158 169 187 181 171 178 181 167 153 196 266 270 255 274 256 236 226 237 246 247 247 254 252 247 250 253 256 248 236 225 224 223 215 221
173 201 193 176 259 269 262 272 299 339 7 40 55 62 68 135 171 203 231 171 182 192 205 207 233 276 282 272 279 276 252 238 243 252 255 257 264 273 260 252 245 246 245 237 223 221 225 215 221
167 160 111 159 229 261 272 264 255 263 252 272 336 267 287 295 259 267 273 196 195 203 239 266 249 256 270 281 280 286 267 255 251 250 255 261 268 264 254 265 258 252 252 247 234 230 226 221 230
167 170 177 190 204 216 262 265 243 213 230 245 267 274 273 267 250 260 268 225 213 232 237 267 284 282 284 282 278 278 274 268 261 255 259 260 265 253 240 241 247 249 249 246 235 240 229 227 236
205 196 167 192 245 227 251 269 298 207 293 276 283 306 301 289 274 269 245 208 245 289 286 283 290 289 289 289 289 280 280 275 264 261 261 266 264 258 248 242 240 250 251 242 236 244 241 232 236
Height
1507 1507 1508 1510 1514 1525 1524 1518 1511 1508 1507 1506 1505 1505 1507 1512 1515 1522 1520 1518 1519 1519 1520 1520 1521 1522 1522 1522 1522 1523 1523 1523 1524 1524 1524 1525 1525 1526 1526 1527 1527 1528 1528 1528 1529 1530 1530 1530 1530
1506 1507 1509 1510 1520 1530 1525 1515 1511 1507 1506 1506 1505 1506 1508 1512 1514 1516 1516 1517 1518 1519 1519 1520 1520 1521 1521 1522 1522 1522 1523 1523 1523 1524 1524 1524 1525 1525 1526 1527 1527 1528 1528 1528 1529 1530 1530 1530 1531
1507 1507 1509 1513 1521 1525 1519 1511 1508 1505 1505 1505 1506 1508 1510 1513 1514 1515 1516 1517 1518 1518 1519 1519 1520 1520 1520 1521 1521 1521 1522 1522 1523 1523 1523 1524 1524 1525 1525 1526 1527 1527 1528 1528 1529 1529 1530 1530 1531
1507 1509 1510 1517 1519 1516 1511 1508 1506 1505 1505 1505 1506 1510 1512 1514 1515 1515 1515 1516 1517 1517 1518 1518 1519 1519 1520 1520 1520 1520 1521 1521 1521 1522 1522 1523 1523 1524 1525 1525 1526 1526 1527 1528 1528 1529 1529 1530 1530
1506 1508 1515 1520 1517 1512 1508 1506 1506 1505 1505 1506 1507 1510 1513 1514 1514 1515 1515 1515 1516 1516 1517 1517 1518 1518 1519 1519 1519 1519 1520 1520 1520 1520 1521 1522 1522 1523 1524 1524 1525 1525 1526 1527 1527 1528 1529 1529 1530
1507 1509 1520 1522 1516 1510 1506 1505 1505 1505 1506 1506 1507 1510 1512 1514 1513 1514 1514 1515 1515 1515 1516 1516 1517 1517 1517 1518 1518 1518 1518 1519 1519 1519 1519 1520 1520 1521 1522 1523 1524 1524 1525 1526 1526 1527 1528 1528 1529
1508 1513 1518 1516 1514 1511 1507 1505 1505 1505 1506 1507 1507 1510 1512 1513 1513 1513 1513 1514 1514 1515 1515 1515 1516 1516 1516 1517 1517 1517 1517 1517 1517 1518 1518 1518 1519 1520 1520 1521 1522 1523 1523 1524 1525 1526 1527 1527 1528
1506 1511 1514 1515 1512 1510 1506 1505 1505 1505 1506 1507 1507 1508 1510 1511 1512 1512 1512 1513 1513 1514 1514 1514 1514 1515 1515 1515 1516 1516 1516 1516 1516 1516 1517 1517 1517 1518 1519 1520 1520 1521 1522 1522 1523 1524 1525 1526 1527
1506 1514 1517 1512 1510 1508 1505 1505 1506 1505 1505 1506 1506 1507 1508 1509 1510 1510 1511 1511 1512 1512 1512 1512 1513 1513 1513 1514 1514 1514 1515 1515 1515 1515 1515 1516 1516 1516 1517 1518 1518 1519 1520 1521 1522 1523 1524 1525 1526
1505 1514 1511 1506 1505 1505 1505 1505 1505 1505 1506 1506 1506 1507 1508 1508 1508 1509 1509 1509 1509 1510 1511 1511 1511 1511 1512 1512 1512 1513 1513 1513 1513 1513 1514 1514 1514 1515 1515 1516 1516 1517 1518 1519 1520 1521 1523 1523 1524
1504 1508 1505 1504 1503 1503 1504 1505 1505 1505 1506 1506 1505 1505 1506 1507 1507 1507 1508 1508 1508 1509 1509 1509 1510 1510 1510 1510 1511 1511 1511 1512 1512 1512 1512 1512 1512 1513 1513 1514 1514 1515 1516 1517 1518 1520 1521 1522 1523
1504 1503 1503 1502 1502 1502 1503 1504 1505 1504 1505 1505 1505 1505 1505 1505 1505 1506 1506 1507 1507 1507 1507 1508 1508 1508 1508 1509 1509 1509 1510 1510 1510 1510 1510 1510 1510 1511 1511 1512 1513 1514 1514 1515 1517 1518 1519 1520 1521
1503 1503 1502 1502 1502 1502 1502 1503 1504 1503 1503 1503 1504 1504 1504 1504 1504 1505 1506 1506 1506 1506 1506 1506 1506 1506 1506 1507 1507 1508 1508 1508 1508 1508 1508 1508 1509 1509 1509 1510 1510 1511 1512 1513 1514 1515 1517 1518 1519
1502 1502 1502 1501 1501 1501 1502 1502 1503 1501 1502 1502 1502 1502 1502 1502 1503 1503 1503 1503 1504 1504 1504 1504 1505 1505 1505 1505 1505 1505 1506 1506 1506 1506 1506 1507 1507 1507 1507 1508 1508 1509 1510 1511 1512 1513 1515 1516 1517
1502 1503 1502 1500 1499 1500 1501 1503 1501 1499 1500 1500 1500 1501 1501 1501 1501 1501 1502 1502 1502 1503 1503 1503 1503 1503 1503 1503 1503 1503 1503 1504 1504 1504 1504 1505 1505 1505 1505 1506 1506 1507 1508 1509 1510 1511 1512 1514 1515
1503 1505 1507 1500 1499 1499 1503 1504 1498 1498 1498 1498 1498 1498 1499 1499 1499 1499 1500 1500 1500 1501 1501 1501 1501 1501 1501 1501 1501 1501 1501 1502 1502 1502 1502 1503 1503 1503 1503 1504 1504 1505 1505 1506 1507 1508 1510 1511 1512
1507 1510 1507 1502 1498 1498 1501 1501 1497 1496 1496 1496 1496 1496 1496 1496 1497 1497 1497 1498 1498 1499 1499 1499 1499 1499 1499 1499 1500 1500 1500 1500 1500 1500 1500 1500 1501 1501 1501 1501 1502 1503 1503 1504 1505 1506 1507 1508 1509
1508 1508 1505 1502 1498 1498 1500 1499 1496 1495 1495 1495 1494 1494 1494 1494 1494 1495 1495 1495 1496 1496 1497 1497 1497 1497 1497 1497 1498 1498 1497 1498 1498 1498 1498 1498 1499 1499 1499 1499 1500 1500 1501 1502 1503 1504 1505 1505 1507
1503 1504 1504 1501 1497 1498 1498 1496 1493 1493 1493 1493 1493 1492 1492 1492 1492 1492 1493 1493 1494 1494 1494 1495 1495 1495 1495 1495 1495 1495 1495 1495 1495 1496 1496 1496 1497 1497 1497 1497 1497 1498 1499 1499 1501 1501 1502 1503 1504
1502 1504 1504 1500 1497 1498 1498 1495 1491 1490 1490 1489 1489 1489 1489 1490 1490 1490 1490 1491 1491 1492 1492 1493 1493 1493 1493 1493 1493 1493 1493 1493 1493 1494 1494 1494 1494 1494 1494 1495 1495 1496 1496 1497 1498 1499 1499 1500 1502
1501 1502 1502 1501 1499 1497 1499 1496 1491 1487 1487 1487 1487 1487 1487 1487 1487 1488 1488 1489 1489 1489 1490 1490 1491 1491 1491 1491 1491 1491 1491 1491 1491 1491 1491 1491 1492 1492 1492 1492 1493 1493 1494 1494 1495 1496 1497 1497 1499
1500 1498 1498 1499 1503 1505 1501 1502 1490 1487 1486 1485 1485 1484 1484 1486 1486 1486 1486 1486 1487 1488 1488 1489 1489 1489 1489 1489 1489 1489 1488 1488 1488 1488 1488 1489 1489 1489 1489 1490 1490 1491 1491 1492 1492 1493 1494 1495 1495
1497 1495 1497 1498 1501 1504 1501 1503 1491 1488 1486 1483 1482 1482 1483 1483 1484 1484 1484 1485 1486 1486 1486 1487 1487 1486 1487 1487 1487 1487 1486 1486 1486 1486 1486 1486 1486 1486 1487 1487 1487 1488 1488 1489 1489 1490 1491 1492 1492
1495 1497 1498 1501 1504 1506 1498 1501 1493 1488 1482 1480 1480 1480 1481 1482 1482 1483 1483 1483 1484 1484 1485 1485 1484 1484 1485 1485 1484 1484 1484 1484 1483 1483 1482 1482 1483 1483 1483 1484 1484 1484 1485 1485 1486 1487 1487 1488 1489
1497 1504 1511 1510 1511 1505 1496 1495 1489 1479 1478 1478 1478 1479 1479 1480 1481 1481 1481 1481 1482 1482 1482 1483 1482 1482 1482 1482 1482 1481 1481 1481 1480 1480 1479 1479 1479 1479 1480 1480 1480 1481 1482 1482 1483 1483 1484 1485 1485
1497 1501 1509 1508 1508 1502 1495 1492 1484 1478 1476 1476 1477 1478 1478 1478 1479 1480 1480 1480 1480 1480 1481 1480 1480 1480 1480 1479 1479 1478 1478 1477 1477 1477 1477 1476 1476 1476 1476 1476 1477 1477 1478 1479 1479 1479 1480 1481 1482
1496 1500 1499 1506 1508 1505 1496 1491 1483 1478 1477 1477 1477 1478 1477 1477 1478 1478 1478 1478 1478 1478 1478 1478 1477 1477 1477 1476 1476 1476 1475 1474 1474 1473 1473 1473 1472 1472 1472 1473 1473 1474 1474 1475 1475 1476 1476 1477 1478
1494 1496 1502 1505 1504 1499 1493 1491 1486 1480 1479 1478 1478 1478 1477 1476 1476 1476 1476 1476 1476 1476 1476 1476 1475 1475 1474 1474 1473 1472 1472 1471 1470 1470 1470 1469 1469 1469 1469 1469 1469 1470 1471 1471 1471 1472 1473 1473 1474
1496 1498 1499 1502 1501 1499 1496 1489 1479 1479 1478 1477 1477 1476 1475 1475 1475 1474 1474 1474 1474 1474 1474 1473 1473 1472 1472 1471 1470 1469 1468 1467 1467 1467 1466 1466 1465 1465 1465 1466 1466 1466 1466 1467 1468 1468 1469 1469 1469
1492 1494 1497 1501 1502 1501 1498 1490 1477 1477 1476 1477 1476 1476 1474 1473 1473 1472 1472 1472 1472 1471 1471 1470 1470 1469 1469 1468 1467 1466 1465 1464 1463 1463 1462 1462 1462 1462 1462 1462 1462 1462 1463 1463 1464 1464 1464 1465 1465